(103725) = 2000 CF98 = 2003 SQ277 = 2014 SD141

Discovered at Kitt Peak on 2000-02-07 by Spacewatch.

Orbit

Orbit type: Main Belt

Note: WebGL enabled browser required.

epoch2023-02-25.0
epoch JD2460000.5
perihelion date2020-08-19.80237
perihelion JD2459081.30237
argument of perihelion (°)73.47885
ascending node (°)324.83212
inclination (°)10.12636
eccentricity0.1132105
perihelion distance (AU)2.7708248
Tisserand w.r.t. Jupiter3.2
ΔV w.r.t. Earth (km/sec)10.8
semimajor axis (AU)3.1245575
mean anomaly (°)164.03252
mean daily motion (°/day)0.17845190
aphelion distance (AU)3.478
period (years)5.52
P-vector [x]0.77605577
P-vector [y]0.49052336
P-vector [z]0.39638904
Q-vector [x]-0.62248079
Q-vector [y]0.69669898
Q-vector [z]0.35655042
absolute magnitude15.12
phase slope0.15
uncertainty0
referenceMPO 745323
observations used649
oppositions16
arc length (days)8941
first opposition used1998
last opposition used2023
residual rms (arc-secs)0.74
perturbers coarse indicatorM-v
perturbers precise indicator003Ek
first observation date used1998-12-17.0
last observation date used2023-06-10.0
computer nameMPCLINUX
JD of orbit computation2456966.797609
perihelion JD uncertainty (days)2.4214E-04
argument of perihelion uncertainty (°)5.9778E-05
ascending node uncertainty (°)3.3775E-05
inclination uncertainty (°)8.5661E-06
eccentricity uncertainty 7.2933E-08
perihelion distance uncertainty (AU)2.3457E-07
Minimum Orbit Intersection Distances (in AU)
for orbit epoch: 2460000.5, reference: E2023-L52
Mercury2.45336
Venus2.06784
Earth1.79742
Mars1.32888
Jupiter1.99751
Saturn6.06754
Uranus15.1004
Neptune27.0604

Observations

671 total observations over interval: 1998 12 17.09396 – 2023 06 10.307955
These data are available for download (format description).

Date (UT) J2000 RA J2000 Dec Magn Location Ref
1998 12 17.09396 04 14 14.84 +35 58 46.7 19.1   704 – Lincoln Laboratory ETS, New Mexico MPS 90405
1998 12 17.11689 04 14 13.56 +35 58 42.3 19.1   704 – Lincoln Laboratory ETS, New Mexico MPS 90405
1998 12 17.14081 04 14 12.23 +35 58 33.5 18.6   704 – Lincoln Laboratory ETS, New Mexico MPS 90405
1998 12 17.16377 04 14 11.09 +35 58 29.0 19.1   704 – Lincoln Laboratory ETS, New Mexico MPS 90405
2000 02 07.46511 10 36 52.56 +07 01 42.9 19.6 V 691 – Steward Observatory, Kitt Peak-Spacewatch MPS 10436
2000 02 07.48651 10 36 51.58 +07 01 45.0 19.7 V 691 – Steward Observatory, Kitt Peak-Spacewatch MPS 10436
2000 02 07.50772 10 36 50.64 +07 01 47.0 19.9 V 691 – Steward Observatory, Kitt Peak-Spacewatch MPS 10436
2000 02 14.34850 10 31 30.35 +07 14 31.6 19.9 V 691 – Steward Observatory, Kitt Peak-Spacewatch MPS 10436
2000 02 14.36966 10 31 29.30 +07 14 34.2 19.6 V 691 – Steward Observatory, Kitt Peak-Spacewatch MPS 10436
2000 02 14.39088 10 31 28.23 +07 14 36.8 19.3 V 691 – Steward Observatory, Kitt Peak-Spacewatch MPS 10436
2000 02 29.24314 10 19 06.50 +07 47 55.8 19.4   704 – Lincoln Laboratory ETS, New Mexico MPS 11105
2000 02 29.25650 10 19 05.87 +07 47 57.5 19.6   704 – Lincoln Laboratory ETS, New Mexico MPS 11105
2000 02 29.28318 10 19 04.47 +07 48 02.2 19.7   704 – Lincoln Laboratory ETS, New Mexico MPS 11105
2000 03 03.19589 10 16 41.68 +07 54 40.0 17.8   704 – Lincoln Laboratory ETS, New Mexico MPS 11105
2000 03 03.20918 10 16 41.01 +07 54 41.5 17.9   704 – Lincoln Laboratory ETS, New Mexico MPS 11105
2000 03 03.22245 10 16 40.31 +07 54 45.0 18.1   704 – Lincoln Laboratory ETS, New Mexico MPS 11105
2000 03 03.23571 10 16 39.69 +07 54 45.8 17.9   704 – Lincoln Laboratory ETS, New Mexico MPS 11105
2000 03 03.24896 10 16 39.03 +07 54 47.5 18.0   704 – Lincoln Laboratory ETS, New Mexico MPS 11105
2003 09 25.37841 00 48 25.10 +17 32 29.3 19.0   644 – Palomar Mountain/NEAT MPS 90405
2003 09 25.44375 00 48 21.84 +17 32 25.9 19.1   644 – Palomar Mountain/NEAT MPS 90405
2003 09 25.51079 00 48 18.51 +17 32 22.3 19.1   644 – Palomar Mountain/NEAT MPS 90405
2003 09 30.24447 00 44 23.36 +17 26 35.3 19.5   704 – Lincoln Laboratory ETS, New Mexico MPS 87138
2003 09 30.25776 00 44 22.67 +17 26 32.1 19.7   704 – Lincoln Laboratory ETS, New Mexico MPS 87138
2003 09 30.27059 00 44 22.02 +17 26 31.6 19.6   704 – Lincoln Laboratory ETS, New Mexico MPS 87138
2003 09 30.28368 00 44 21.38 +17 26 30.5 19.7   704 – Lincoln Laboratory ETS, New Mexico MPS 87138
2003 09 30.29676 00 44 20.65 +17 26 29.1 19.5   704 – Lincoln Laboratory ETS, New Mexico MPS 87138
2003 10 01.18950 00 43 35.48 +17 24 58.7 19.8 V 691 – Steward Observatory, Kitt Peak-Spacewatch MPS 87138
2003 10 01.21554 00 43 34.09 +17 24 56.1 19.7 V 691 – Steward Observatory, Kitt Peak-Spacewatch MPS 87138
2003 10 01.24156 00 43 32.74 +17 24 53.4 19.9 V 691 – Steward Observatory, Kitt Peak-Spacewatch MPS 87138
2003 10 17.26041 00 30 05.84 +16 40 27.4 18.8 R 699 – Lowell Observatory-LONEOS MPS 88280
2003 10 17.27520 00 30 05.04 +16 40 24.8   699 – Lowell Observatory-LONEOS MPS 88280
2003 10 17.29002 00 30 04.40 +16 40 21.6   699 – Lowell Observatory-LONEOS MPS 88280
2003 10 17.30497 00 30 03.61 +16 40 17.8   699 – Lowell Observatory-LONEOS MPS 88280
2003 10 26.07844 00 23 41.85 +16 06 54.3 20.2 V 691 – Steward Observatory, Kitt Peak-Spacewatch MPS 88280
2003 10 26.10523 00 23 40.75 +16 06 48.2 20.7 V 691 – Steward Observatory, Kitt Peak-Spacewatch MPS 88280
2003 10 26.13255 00 23 39.65 +16 06 41.9 20.1 V 691 – Steward Observatory, Kitt Peak-Spacewatch MPS 88280
2004 12 13.37479 08 25 01.54 +27 48 37.6 19.0 R 699 – Lowell Observatory-LONEOS MPS 121576
2004 12 13.38629 08 25 01.17 +27 48 39.3   699 – Lowell Observatory-LONEOS MPS 121576
2004 12 13.39779 08 25 00.80 +27 48 39.0   699 – Lowell Observatory-LONEOS MPS 121576
2004 12 13.40930 08 25 00.42 +27 48 41.7   699 – Lowell Observatory-LONEOS MPS 121576
2004 12 15.33337 08 24 04.77 +27 51 06.2 19.5   704 – Lincoln Laboratory ETS, New Mexico MPS 124550
2004 12 15.34671 08 24 04.33 +27 51 07.8 19.7   704 – Lincoln Laboratory ETS, New Mexico MPS 124550
2004 12 15.36528 08 24 03.67 +27 51 09.5 19.9   704 – Lincoln Laboratory ETS, New Mexico MPS 124550
2004 12 15.37870 08 24 03.27 +27 51 09.8 19.5   704 – Lincoln Laboratory ETS, New Mexico MPS 124550
2004 12 21.40698 08 20 31.37 +27 59 01.2 18.8 R 703 – Catalina Sky Survey MPS 122602
2004 12 21.41891 08 20 30.96 +27 59 02.2 19.2 R 703 – Catalina Sky Survey MPS 122602
2004 12 21.43068 08 20 30.36 +27 59 02.8 18.8 R 703 – Catalina Sky Survey MPS 122602
2004 12 21.44246 08 20 29.95 +27 59 04.5 18.8 R 703 – Catalina Sky Survey MPS 122602
2005 01 06.33574 08 07 33.67 +28 16 45.8 18.4 R 703 – Catalina Sky Survey MPS 123442
2005 01 06.34216 08 07 33.35 +28 16 46.4 18.4 R 703 – Catalina Sky Survey MPS 123442
2005 01 06.34863 08 07 33.02 +28 16 45.9 18.1 R 703 – Catalina Sky Survey MPS 123442
2005 01 06.35509 08 07 32.57 +28 16 46.3 18.5 R 703 – Catalina Sky Survey MPS 123442
2005 01 07.29331 08 06 39.66 +28 17 27.6 19.9   704 – Lincoln Laboratory ETS, New Mexico MPS 123970
2005 01 07.30732 08 06 38.89 +28 17 27.8 19.6   704 – Lincoln Laboratory ETS, New Mexico MPS 123970
2005 01 07.32082 08 06 38.10 +28 17 28.2 20.0   704 – Lincoln Laboratory ETS, New Mexico MPS 123970
2005 01 16.29213 07 57 52.62 +28 20 29.2 19.6   704 – Lincoln Laboratory ETS, New Mexico MPS 124550
2005 01 16.30613 07 57 51.76 +28 20 29.4 19.7   704 – Lincoln Laboratory ETS, New Mexico MPS 124550
2005 01 16.31976 07 57 50.91 +28 20 29.8 19.7   704 – Lincoln Laboratory ETS, New Mexico MPS 124550
2005 01 18.24440 07 55 56.95 +28 20 14.1 19.3 V 691 – Steward Observatory, Kitt Peak-Spacewatch MPS 124550
2005 01 18.27028 07 55 55.38 +28 20 13.8 19.3 V 691 – Steward Observatory, Kitt Peak-Spacewatch MPS 124550
2005 01 18.30270 07 55 53.40 +28 20 13.3 19.2 V 691 – Steward Observatory, Kitt Peak-Spacewatch MPS 124550
2005 01 19.28405 07 54 55.42 +28 19 57.2 19.0   704 – Lincoln Laboratory ETS, New Mexico MPS 124550
2005 01 19.29811 07 54 54.56 +28 19 56.3 19.3   704 – Lincoln Laboratory ETS, New Mexico MPS 124550
2005 01 19.31139 07 54 53.74 +28 19 56.2 19.7   704 – Lincoln Laboratory ETS, New Mexico MPS 124550
2005 01 19.32428 07 54 53.02 +28 19 57.5 19.6   704 – Lincoln Laboratory ETS, New Mexico MPS 124550
2005 01 19.33721 07 54 52.21 +28 19 55.7 19.4   704 – Lincoln Laboratory ETS, New Mexico MPS 124550
2005 01 20.18797 07 54 02.38 +28 19 37.5 18.8 R 699 – Lowell Observatory-LONEOS MPS 124550
2005 01 20.20587 07 54 01.27 +28 19 37.1   699 – Lowell Observatory-LONEOS MPS 124550
2005 01 20.22376 07 54 00.28 +28 19 36.6   699 – Lowell Observatory-LONEOS MPS 124550
2005 01 20.24166 07 53 59.18 +28 19 36.6   699 – Lowell Observatory-LONEOS MPS 124550
2005 02 03.23919 07 41 12.64 +28 04 28.5 19.5   704 – Lincoln Laboratory ETS, New Mexico MPS 125556
2005 02 03.25214 07 41 12.02 +28 04 27.7 19.7   704 – Lincoln Laboratory ETS, New Mexico MPS 125556
2005 02 03.26524 07 41 11.30 +28 04 26.2 20.0   704 – Lincoln Laboratory ETS, New Mexico MPS 125556
2005 02 03.27840 07 41 10.70 +28 04 24.6 19.7   704 – Lincoln Laboratory ETS, New Mexico MPS 125556
2005 02 03.29159 07 41 10.01 +28 04 23.4 19.7   704 – Lincoln Laboratory ETS, New Mexico MPS 125556
2005 02 04.29006 07 40 21.69 +28 02 36.3 18.6 R G96 – Mt. Lemmon Survey MPS 126312
2005 02 04.29793 07 40 21.31 +28 02 35.4 18.5 R G96 – Mt. Lemmon Survey MPS 126312
2005 02 04.30576 07 40 20.90 +28 02 35.0 18.6 R G96 – Mt. Lemmon Survey MPS 126312
2005 02 04.31528 07 40 20.48 +28 02 33.9 18.7 R G96 – Mt. Lemmon Survey MPS 126312
2008 08 07.99589 21 52 50.96 -13 44 48.9 18.8 V J75 – OAM Observatory, La Sagra MPS 254279
2008 08 08.01065 21 52 50.17 -13 44 49.4 19.1 V J75 – OAM Observatory, La Sagra MPS 254279
2008 08 08.02524 21 52 49.52 -13 44 49.9 19.3 V J75 – OAM Observatory, La Sagra MPS 254279
2008 08 10.08682 21 51 06.30 -13 47 05.8 18.7 V J75 – OAM Observatory, La Sagra MPS 254279
2008 08 10.10000 21 51 05.60 -13 47 06.5 18.8 V J75 – OAM Observatory, La Sagra MPS 254279
2008 08 10.11317 21 51 04.94 -13 47 07.7 18.7 V J75 – OAM Observatory, La Sagra MPS 254279
